User: anonymous   Login
Location: Unspecified
(0.0000°N, 0.0000°E)
Time: 21:20:20
(UTC+02:00)
Language:

ARIANE DEB (SPELDA) - Orbit

View from above orbital plane
View from above orbital plane
View from above satellite
View from above satellite

Ground track
Ground track

The orbit data is extracted from the following two-line orbital elements,

1 27402U 02015D   15125.22445610  .00001868  00000-0  18765-2 0  9993
2 27402 003.4406 103.6666 7105192 354.7548 211.4183 02.46677613114843
Epoch (UTC): 05 May 2015 05:23:13
Eccentricity: 0.7105192
inclination: 3.4406°
perigee height: 320 km
apogee height: 33198 km
right ascension of ascending node: 103.6666°
argument of perigee: 354.7548°
revolutions per day: 2.46677613
mean anomaly at epoch: 211.4183°
orbit number at epoch: 11484

The dashed part of the orbit path shows where the satellite is in the earth's shadow,  

DLR